Regional Weather Roundup
Issued by NWS

Home | Current Version | Previous Version | Graphics & Text | Print | Product List | Glossary On
Versions: 1 2 3 4 5 6 7 8 9 10 11 12 13 14 15 16 17 18 19 20 21 22 23 24 25 26 27 28 29 30 31 32 33 34 35 36 37 38 39 40 41 42 43 44 45 46 47 48 49 50
000
ASUS43 KLMK 292010
RWRKY
KENTUCKY REGIONAL WEATHER ROUNDUP
NATIONAL WEATHER SERVICE LOUISVILLE KY
400 PM EDT THU SEP 29 2016

NOTE "FAIR" INDICATES FEW OR NO CLOUDS BELOW 12,000 FEET
WITH NO SIGNIFICANT WEATHER AND/OR OBSTRUCTIONS TO VISIBILITY.

KYZ001>023-026-027-061>063-070>075-292100-
WESTERN AND SOUTH CENTRAL KENTUCKY

CITY           SKY/WX    TMP DP  RH WIND       PRES   REMARKS
PADUCAH        CLOUDY    64  55  72 NW9       30.11S
HENDERSON      CLOUDY    64  52  63 N3        30.08F
OWENSBORO      PTSUNNY  N/A N/A N/A VRB6      30.08S
HOPKINSVILLE   CLOUDY    61  53  75 N6        30.09S
BOWLING GREEN  PTSUNNY   64  51  62 VRB6      30.08S
GLASGOW        PTSUNNY   62  50  64 NW5       30.07F
$$

KYZ024-025-028>034-038-045-046-053-292100-
NORTH CENTRAL KENTUCKY

CITY           SKY/WX    TMP DP  RH WIND       PRES   REMARKS
LOUISVILLE/SDF CLOUDY    64  50  60 N5        30.07S
LOUISVILLE/LOU CLOUDY    62  51  67 N3        30.07F
FORT KNOX      HVY RAIN  59  54  82 N7        30.06S
$$

KYZ035>037-039>044-047>052-055>060-089>105-292100-
NORTHEAST KENTUCKY

CITY           SKY/WX    TMP DP  RH WIND       PRES   REMARKS
LEXINGTON      CLOUDY    61  52  72 N12       30.06S
COVINGTON      PTSUNNY   65  51  60 CALM      30.06F
FRANKFORT      PTSUNNY   63  51  65 NE8       30.05F
$$

KYZ054-064>069-076>088-106>120-292100-
SOUTHEAST KENTUCKY

CITY           SKY/WX    TMP DP  RH WIND       PRES   REMARKS
JACKSON        CLOUDY    56  52  86 N3        30.06R
LONDON         CLOUDY    62  47  57 NW6       30.05F
SOMERSET       CLOUDY    61  46  59 CALM      30.07S
MIDDLESBORO    CLOUDY    62  50  63 N7        30.05S
MONTICELLO     CLOUDY    60  49  66 W7        30.08S
$$





USA.gov is the U.S. government's official web portal to all federal, state and local government web resources and services.